sat.trackr.live / text

‹ back to catalog

STARLINK-3974

NORAD 52634 · 2022-052AN

PAYLOAD ACTIVE UNKNOWN

§ Identity

Operator
Country
US
Launch date
2022-05-14
Launch site
AFETR
Launch vehicle
Mass (kg)
RCS (m²)

Purposes: comms

External: N2YO · Heavens-Above · Gunter

§ Orbital elements

Epoch: 2026-09-20T04:39:50.001408Z

Period
93.79 min
Inclination
53.1593°
Eccentricity
0.0001171
Mean motion
15.35403476 rev/d
Perigee alt
458.9 km
Apogee alt
460.5 km
Semi-major
6,837.9 km
B*
4.6225e-5
RAAN
104.1195°
Arg perigee
84.7481°
Mean anomaly
275.3656°
Rev number
24,051

§ Raw data

STARLINK-39741 52634U 22052AN  26263.19432872  .00001232  00000+0  46225-4 0  99962 52634  53.1593 104.1195 0001171  84.7481 275.3656 15.35403476240515

JSON: /api/v1/satellites/52634 · /tle

For live sub-satellite position, see the globe view (requires WebGL).

§ Visibility from observer

Set your observer location to see the next 7 days of passes ≥ 10°. The values pass through the URL so the page stays shareable.

No JS? Fill the form by hand. The geolocation button needs JavaScript.